Stations météo

réclame
Mon MeteoGroup
Berlin-Schönefeld, Allemagne (10385): Température de l'air & dewpoint: 17.10.2018 07:00:00 - 23.10.2018 07:00:00 (CEST)Berlin-Schönefeld, Allemagne (10385): Température de l'air 5cm & Température de l'air -5cm: 17.10.2018 07:00:00 - 23.10.2018 07:00:00 (CEST)Berlin-Schönefeld, Allemagne (10385): Température de l'air -20cm & Température de l'air -100cm: 17.10.2018 07:00:00 - 23.10.2018 07:00:00 (CEST)Berlin-Schönefeld, Allemagne (10385): Vitesse du vent & gusts: 17.10.2018 07:00:00 - 23.10.2018 07:00:00 (CEST)Berlin-Schönefeld, Allemagne (10385): Direction du vent: 17.10.2018 07:00:00 - 23.10.2018 07:00:00 (CEST)Berlin-Schönefeld, Allemagne (10385): reduced air pressure: 17.10.2018 07:00:00 - 23.10.2018 07:00:00 (CEST)Berlin-Schönefeld, Allemagne (10385): visibility: 17.10.2018 07:00:00 - 23.10.2018 07:00:00 (CEST)Berlin-Schönefeld, Allemagne (10385): Ensoleillement: 17.10.2018 07:00:00 - 23.10.2018 07:00:00 (CEST)Berlin-Schönefeld, Allemagne (10385): Quantités de précipitations: 17.10.2018 07:00:00 - 23.10.2018 07:00:00 (CEST)
Date & Time tt [°C] td [°C] tt 5cm [°C] tt -5cm [°C] tt -20cm [°C] tt -100cm [°C] ff [km/h] ff [knt] fx [km/h] fx [knt] dd ppp [hPa] vv [km] sd [min] rr [mm]
23.10.2018 07:00:00 5,9 3,1 5,2 4,9 7,8 13,4 24 13 35 19 SW 1019,9 10 0 0,0
23.10.2018 06:00:00 5,1 2,8 4,2 4,4 7,9 13,4 26 14 35 19 WSW 1021,6 10 0 0,0
23.10.2018 05:00:00 4,5 2,8 3,1 4,2 8,0 13,4 20 11 26 14 WSW 1023,4 30 0 0,0
23.10.2018 04:00:00 4,2 2,6 2,7 4,0 8,2 13,4 18 10 24 13 WSW 1024,7 10 0 0,0
23.10.2018 03:00:00 3,5 2,3 2,0 3,8 8,5 13,4 16 9 19 10 SW 1025,8 10 0 0,0
23.10.2018 02:00:00 2,4 1,4 0,4 4,1 8,7 13,4 11 6 15 8 W 1026,9 30 0 0,0
23.10.2018 01:00:00 2,7 1,5 0,8 4,5 9,0 13,4 13 7 15 8 W 1028,0 10 0 0,0
23.10.2018 00:00:00 3,4 1,9 1,3 4,9 9,3 13,4 11 6 16 9 W 1028,3 35 0 0,0
22.10.2018 23:00:00 3,2 1,7 1,3 5,5 9,7 13,5 11 6 14 8 W 1028,7 10 0 0,0
22.10.2018 22:00:00 4,3 2,9 2,3 6,1 10,0 13,5 11 6 13 7 W 1029,0 10 0 0,0
22.10.2018 21:00:00 6,3 3,0 1,0 7,1 10,2 13,5 9 5 16 9 WNW 1029,1 10 0 0,0
22.10.2018 20:00:00 8,9 3,8 7,0 7,9 10,5 13,5 13 7 22 12 NW 1028,9 10 0 0,0
22.10.2018 19:00:00 10,3 4,4 8,2 8,8 10,6 13,5 13 7 24 13 NW 1028,6 10 0 0,0
22.10.2018 18:00:00 11,1 5,6 10,1 9,9 10,6 13,5 10 6 21 11 NW 1028,3 40 3 0,0
22.10.2018 17:00:00 11,5 6,0 10,5 10,9 10,5 13,5 15 8 36 20 NW 1027,7 10 44 0,0
22.10.2018 16:00:00 11,4 7,8 11,6 10,9 10,3 13,5 18 10 34 18 NW 1027,4 45 19 0,0
22.10.2018 15:00:00 10,3 8,1 9,7 10,4 10,1 13,6 11 6 23 12 NNW 1027,2 10 0 0,5
22.10.2018 14:00:00 9,7 7,3 8,7 10,0 10,0 13,6 18 10 40 21 N 1027,3 10 0 0,5
22.10.2018 13:00:00 10,2 9,5 10,0 10,0 9,8 13,6 13 7 22 12 WNW 1026,8 4,1 0 0,1
22.10.2018 12:00:00 10,7 6,3 10,9 9,9 9,5 13,6 15 8 18 10 W 1026,5 10 0 0,0
22.10.2018 11:00:00 8,8 5,1 9,2 8,9 9,4 13,6 9 5 16 9 WSW 1026,2 10 0 0,0
22.10.2018 10:00:00 8,1 4,6 8,5 8,0 9,3 13,6 12 6 15 8 SW 1026,2 27 0 0,0
22.10.2018 09:00:00 6,4 4,1 6,8 7,1 9,3 13,6 11 6 13 7 SW 1026,0 27 0 0,0
22.10.2018 08:00:00 5,4 3,6 5,4 6,2 9,4 13,6 5 3 11 6 SSW 1025,7 10 0 0,0
22.10.2018 07:00:00 3,9 2,6 1,0 5,8 9,6 13,6 6 3 9 5 S 1025,6 40 0 0,0
22.10.2018 06:00:00 4,7 3,1 1,1 6,2 9,8 13,6 5 3 9 5 S 1025,7 10 0 0,0
22.10.2018 05:00:00 5,0 3,2 1,6 6,8 10,0 13,6 8 4 11 6 S 1025,7 10 0 0,0
22.10.2018 04:00:00 5,9 3,8 4,8 7,4 10,1 13,6 5 3 13 7 SSW 1026,2 10 0 0,0
22.10.2018 03:00:00 5,7 3,7 4,2 6,9 10,3 13,7 9 5 13 7 S 1026,6 50 0 0,0
22.10.2018 02:00:00 6,0 3,7 4,5 6,8 10,5 13,7 4 2 11 6 - 1027,1 10 0 0,0
22.10.2018 01:00:00 5,9 3,7 1,7 7,2 10,8 13,7 6 4 9 5 S 1027,4 50 0 0,0
22.10.2018 00:00:00 6,7 4,0 3,6 7,7 11,1 13,7 8 4 11 6 S 1027,7 50 0 0,0
21.10.2018 23:00:00 7,5 4,1 4,6 8,1 11,5 13,7 5 3 15 8 SSW 1027,6 10 0 0,0
21.10.2018 22:00:00 6,0 3,6 3,0 8,7 11,8 13,7 13 7 16 9 S 1027,7 50 0 0,0
21.10.2018 21:00:00 7,3 3,9 4,5 9,5 12,2 13,7 11 6 13 7 S 1027,8 50 0 0,0
21.10.2018 20:00:00 8,4 4,1 4,4 10,5 12,5 13,7 5 3 13 7 S 1027,9 10 0 0,0
21.10.2018 19:00:00 11,0 4,6 6,6 11,7 12,8 13,7 9 5 11 6 S 1027,8 50 0 0,0
21.10.2018 18:00:00 13,1 4,7 8,6 13,6 12,8 13,8 7 4 13 7 S 1027,6 50 40 0,0
21.10.2018 17:00:00 14,3 4,5 15,1 15,5 12,6 13,8 9 5 15 8 SW 1027,9 50 60 0,0
21.10.2018 16:00:00 14,5 4,6 18,1 16,3 12,1 13,8 8 4 18 10 - 1028,3 10 60 0,0
21.10.2018 15:00:00 14,6 4,4 18,9 16,4 11,4 13,8 9 5 16 9 SW 1028,8 50 60 0,0
21.10.2018 14:00:00 14,1 4,9 17,7 15,6 10,6 13,8 8 5 21 11 SSW 1028,9 35 60 0,0
21.10.2018 13:00:00 13,2 6,0 17,1 13,8 9,9 13,8 9 5 16 9 S 1029,5 10 60 0,0
21.10.2018 12:00:00 12,3 6,9 17,5 11,4 9,3 13,8 9 5 15 8 S 1030,1 30 60 0,0
21.10.2018 11:00:00 10,6 6,9 13,6 8,4 9,1 13,8 6 3 9 5 S 1030,1 20 60 0,0
21.10.2018 10:00:00 7,4 5,6 7,3 6,0 9,1 13,8 4 2 8 4 - 1030,1 10 60 0,0
21.10.2018 09:00:00 3,6 3,1 2,4 5,0 9,4 13,9 3 2 9 5 SSW 1029,6 4,0 36 0,0
21.10.2018 08:00:00 2,4 2,3 -0,4 4,9 9,6 13,9 8 4 11 6 WSW 1029,2 1,3 0 0,0
21.10.2018 07:00:00 2,5 2,4 -2,0 5,4 9,9 13,9 3 2 5 3 NW 1029,0 4,0 0 0,0
21.10.2018 06:00:00 4,2 4,0 -0,7 5,8 10,2 13,9 4 2 8 4 NNW 1028,8 30 0 0,0
21.10.2018 05:00:00 4,2 3,7 -0,1 6,3 10,5 13,9 5 3 9 5 WNW 1028,5 10 0 0,0
21.10.2018 04:00:00 5,3 4,2 0,4 6,9 10,8 13,9 4 2 11 6 NW 1028,5 10 0 0,0
21.10.2018 03:00:00 5,9 4,2 0,8 7,6 11,1 13,9 9 5 13 7 WNW 1028,6 40 0 0,0
21.10.2018 02:00:00 6,7 4,5 1,9 8,5 11,3 13,9 7 4 11 6 W 1028,4 40 0 0,0
21.10.2018 01:00:00 8,2 5,1 5,2 9,5 11,5 13,9 5 3 9 5 W 1028,4 10 0 0,0
21.10.2018 00:00:00 8,8 4,7 8,1 9,7 11,6 13,9 8 4 9 5 W 1028,4 10 0 0,0
20.10.2018 23:00:00 8,8 4,2 7,3 10,1 11,8 14,0 9 5 11 6 W 1028,6 10 0 0,0
20.10.2018 22:00:00 9,0 4,0 7,9 10,3 11,9 14,0 8 4 11 6 WSW 1028,8 10 0 0,0
20.10.2018 21:00:00 9,4 3,8 8,3 10,8 12,0 14,0 7 4 11 6 W 1028,6 50 0 0,0
20.10.2018 20:00:00 10,6 3,6 9,6 11,2 12,1 14,0 11 6 13 7 W 1028,6 10 0 0,0
20.10.2018 19:00:00 11,2 3,3 10,7 11,7 12,2 14,0 13 7 18 10 W 1028,5 10 0 0,0
20.10.2018 18:00:00 11,6 3,0 11,2 12,3 12,2 14,0 11 6 21 11 W 1028,4 10 0 0,0
20.10.2018 17:00:00 11,8 3,0 11,4 13,1 12,1 14,0 16 9 26 14 WNW 1028,6 10 0 0,0
20.10.2018 16:00:00 12,5 2,6 12,9 13,8 11,9 14,0 16 9 24 13 WNW 1028,5 55 4 0,0
20.10.2018 15:00:00 12,5 2,4 13,2 13,7 11,5 14,0 16 9 25 13 NNW 1028,7 55 0 0,0
20.10.2018 14:00:00 12,5 2,5 13,7 14,3 11,0 14,1 18 10 28 15 WNW 1028,8 45 38 0,0
20.10.2018 13:00:00 12,3 2,3 15,1 13,5 10,4 14,1 18 10 27 14 NW 1029,0 45 58 0,0
20.10.2018 12:00:00 11,7 3,5 14,1 11,3 9,9 14,1 13 7 21 11 WNW 1029,2 10 60 0,0
20.10.2018 11:00:00 9,3 5,2 11,5 8,9 9,7 14,1 9 5 15 8 W 1028,8 10 14 0,0
20.10.2018 10:00:00 6,3 4,7 7,1 7,5 9,6 14,1 9 5 21 11 W 1028,9 10 1 0,0
20.10.2018 09:00:00 5,1 3,8 5,4 6,3 9,7 14,1 4 2 9 5 WSW 1028,4 10 0 0,0
20.10.2018 08:00:00 2,9 2,1 2,6 5,5 9,9 14,1 5 3 15 8 WSW 1028,1 10 0 0,0
20.10.2018 07:00:00 2,8 1,8 0,7 5,4 10,1 14,1 9 5 13 7 WSW 1027,6 10 0 0,0
20.10.2018 06:00:00 3,2 2,2 0,0 6,0 10,3 14,1 4 2 8 4 N 1027,2 40 0 0,0
20.10.2018 05:00:00 2,7 1,8 0,6 5,9 10,6 14,1 5 3 8 4 WNW 1027,4 10 0 0,0
20.10.2018 04:00:00 3,1 2,3 -1,1 6,0 10,9 14,1 4 2 9 5 W 1026,7 40 0 0,0
20.10.2018 03:00:00 3,0 2,2 0,5 6,3 11,3 14,1 8 4 8 4 W 1026,8 40 0 0,0
20.10.2018 02:00:00 3,0 2,2 -1,1 6,9 11,7 14,1 3 2 8 4 W 1026,4 45 0 0,0
20.10.2018 01:00:00 4,7 2,7 0,2 7,5 12,0 14,1 7 4 8 4 W 1026,4 45 0 0,0
20.10.2018 00:00:00 4,9 3,1 1,6 8,1 12,5 14,1 4 2 5 3 W 1026,3 10 0 0,0
19.10.2018 23:00:00 6,3 3,9 0,4 8,8 12,9 14,1 3 2 5 3 W 1026,6 50 0 0,0
19.10.2018 22:00:00 7,0 4,2 2,0 9,6 13,3 14,1 5 3 8 4 NW 1026,4 50 0 0,0
19.10.2018 21:00:00 7,8 3,9 2,4 10,6 13,7 14,1 8 5 9 5 WNW 1026,0 50 0 0,0
19.10.2018 20:00:00 10,3 4,8 8,5 11,8 14,0 14,1 9 5 15 8 NW 1025,6 10 0 0,0
19.10.2018 19:00:00 11,1 4,9 9,5 12,9 14,3 14,1 9 5 13 7 WNW 1025,1 10 0 0,0
19.10.2018 18:00:00 12,9 4,6 10,9 14,7 14,4 14,1 8 4 11 6 WNW 1024,6 10 48 0,0
19.10.2018 17:00:00 14,2 4,2 14,9 16,4 14,2 14,1 7 4 15 8 W 1024,6 50 60 0,0
19.10.2018 16:00:00 14,6 4,4 17,3 17,2 13,8 14,1 8 4 16 9 NNW 1024,7 10 60 0,0
19.10.2018 15:00:00 14,2 4,8 17,6 16,9 13,4 14,1 7 4 21 11 NNW 1025,2 50 60 0,0
19.10.2018 14:00:00 13,9 4,8 16,7 15,8 13,0 14,1 13 7 21 11 WNW 1025,4 10 27 0,0
19.10.2018 13:00:00 12,1 6,3 13,8 14,5 12,7 14,1 11 6 16 9 NNW 1025,8 10 0 0,0
19.10.2018 12:00:00 11,3 6,9 12,8 13,3 12,5 14,1 9 5 15 8 N 1026,4 10 0 0,0
19.10.2018 11:00:00 10,5 7,0 11,5 12,2 12,4 14,1 13 7 16 9 N 1026,2 10 0 0,0
19.10.2018 10:00:00 9,5 6,6 9,9 11,3 12,5 14,1 9 5 18 10 NNW 1025,9 10 0 0,0
19.10.2018 09:00:00 9,1 6,8 9,3 10,8 12,6 14,1 11 6 18 10 N 1025,4 10 0 0,0
19.10.2018 08:00:00 8,7 6,5 8,6 10,7 12,7 14,1 11 6 16 9 N 1024,9 10 0 0,0
19.10.2018 07:00:00 8,6 6,5 8,0 10,9 12,9 14,1 9 5 16 9 NNW 1024,5 40 0 0,0
19.10.2018 06:00:00 9,3 6,7 9,0 11,5 13,1 14,1 11 6 18 10 NNW 1024,4 10 0 0,0
19.10.2018 05:00:00 10,1 7,1 9,9 11,8 13,2 14,2 11 6 21 11 N 1024,3 45 0 0,0
19.10.2018 04:00:00 10,7 7,3 10,6 12,2 13,3 14,2 14 8 22 12 N 1024,1 45 0 0,0
19.10.2018 03:00:00 11,1 7,0 10,9 12,5 13,4 14,2 14 8 22 12 N 1024,1 45 0 0,0
19.10.2018 02:00:00 12,0 7,1 11,9 12,8 13,5 14,2 15 8 26 14 NNW 1024,2 45 0 0,0
19.10.2018 01:00:00 12,6 7,9 12,4 13,0 13,6 14,2 19 10 24 13 N 1024,0 35 0 0,0
19.10.2018 00:00:00 12,8 9,6 12,6 13,2 13,7 14,2 15 8 28 15 N 1024,0 10 0 0,0
18.10.2018 23:00:00 13,0 10,3 12,8 13,5 13,8 14,2 16 9 26 14 NNW 1023,6 10 0 0,0
18.10.2018 22:00:00 13,4 11,2 13,2 13,7 13,9 14,2 17 9 29 16 N 1023,3 13 0 0,0
18.10.2018 21:00:00 13,2 12,1 13,1 14,0 13,9 14,2 21 11 31 17 NNW 1022,8 7 0 0,0
18.10.2018 20:00:00 14,0 13,0 13,7 14,4 14,0 14,2 13 7 26 14 N 1022,3 5 0 0,0
18.10.2018 19:00:00 14,5 12,5 14,4 14,7 14,0 14,2 13 7 22 12 NNW 1021,8 5 0 0,0
18.10.2018 18:00:00 14,5 12,3 14,5 15,1 14,0 14,2 14 8 21 11 NNW 1021,3 6 0 0,0
18.10.2018 17:00:00 14,3 11,4 14,6 15,8 13,9 14,2 13 7 26 14 NW 1021,1 8 0 0,0
18.10.2018 16:00:00 15,2 10,8 16,0 16,9 13,5 14,2 16 9 22 12 WNW 1021,0 5 34 0,0
18.10.2018 15:00:00 15,8 9,8 17,8 17,2 13,0 14,2 15 8 23 12 W 1020,7 10 52 0,0
18.10.2018 14:00:00 16,1 9,5 17,3 16,9 12,4 14,3 18 10 29 15 NW 1020,8 10 49 0,0
18.10.2018 13:00:00 17,6 9,6 20,0 15,6 11,8 14,3 15 8 21 11 WNW 1020,5 10 60 0,0
18.10.2018 12:00:00 15,8 10,0 17,4 13,4 11,3 14,3 9 5 13 7 WNW 1020,4 10 57 0,0
18.10.2018 11:00:00 13,6 9,5 15,4 11,3 11,0 14,3 8 4 12 7 W 1020,6 7 42 0,0
18.10.2018 10:00:00 12,1 8,8 13,2 9,5 11,0 14,3 2 1 5 3 - 1020,4 6 60 0,0
18.10.2018 09:00:00 7,2 6,4 6,7 7,9 11,1 14,3 4 2 15 8 W 1020,5 4,8 25 0,0
18.10.2018 08:00:00 5,9 5,5 2,8 7,6 11,4 14,3 2 1 5 3 - 1020,0 4,2 0 0,0
18.10.2018 07:00:00 6,0 5,6 2,6 7,9 11,6 14,3 4 2 8 4 - 1019,6 6 0 0,0
18.10.2018 06:00:00 5,9 5,5 2,7 8,2 11,8 14,3 3 1 4 2 SE 1019,4 6 0 0,0
18.10.2018 05:00:00 6,5 6,2 3,5 8,5 12,1 14,3 0 0 4 2 N 1019,4 6 0 0,0
18.10.2018 04:00:00 6,7 6,6 3,4 8,9 12,4 14,3 2 1 4 2 - 1019,6 8 0 0,0
18.10.2018 03:00:00 7,0 6,6 3,4 9,3 12,7 14,3 2 1 4 2 NNE 1019,7 10 0 0,0
18.10.2018 02:00:00 8,7 8,2 4,6 9,7 13,0 14,3 4 2 4 2 - 1019,6 10 0 0,0
18.10.2018 01:00:00 7,8 7,1 3,7 10,2 13,3 14,3 5 3 5 3 E 1019,6 10 0 0,0
18.10.2018 00:00:00 9,6 8,6 5,8 10,7 13,6 14,3 2 1 8 4 - 1019,6 10 0 0,0
17.10.2018 23:00:00 10,0 8,0 6,0 11,4 14,0 14,3 2 1 11 6 - 1019,8 10 0 0,0
17.10.2018 22:00:00 10,4 9,0 6,1 12,1 14,3 14,3 5 3 10 6 E 1019,7 10 0 0,0
17.10.2018 21:00:00 11,6 9,4 8,3 12,9 14,7 14,3 4 2 13 7 E 1019,5 10 0 0,0
17.10.2018 20:00:00 13,7 9,8 8,8 13,9 15,0 14,3 8 4 11 6 ESE 1019,4 10 0 0,0
17.10.2018 19:00:00 14,5 9,8 9,5 15,2 15,2 14,3 5 3 9 5 E 1019,1 10 0 0,0
17.10.2018 18:00:00 17,7 9,5 13,1 17,1 15,2 14,3 2 1 11 6 - 1018,9 10 35 0,0
17.10.2018 17:00:00 19,3 9,4 21,2 18,8 14,9 14,4 8 4 15 8 ESE 1018,5 10 60 0,0
17.10.2018 16:00:00 19,8 9,8 24,1 19,6 14,3 14,4 8 4 13 7 SE 1018,7 10 60 0,0
17.10.2018 15:00:00 19,8 9,5 25,1 19,5 13,6 14,4 8 4 13 7 SE 1018,8 10 60 0,0
17.10.2018 14:00:00 19,2 9,5 24,7 18,6 12,8 14,4 8 4 13 7 SSE 1019,1 10 60 0,0
17.10.2018 13:00:00 18,6 8,9 22,9 16,7 12,1 14,4 4 2 11 6 - 1019,6 10 60 0,0
17.10.2018 12:00:00 16,0 9,0 20,5 14,3 11,5 14,4 9 5 13 7 SE 1020,1 10 60 0,0
17.10.2018 11:00:00 13,2 8,2 16,3 11,6 11,3 14,4 5 3 9 5 S 1020,3 10 60 0,0
17.10.2018 10:00:00 11,8 8,0 12,2 9,2 11,2 14,4 2 1 8 4 - 1020,0 10 60 0,0
17.10.2018 09:00:00 7,7 6,5 7,1 8,1 11,4 14,4 2 1 8 4 - 1020,1 7 41 0,0
17.10.2018 08:00:00 6,2 6,0 3,1 7,8 11,6 14,4 4 2 5 3 ESE 1019,9 6 0 0,0
17.10.2018 07:00:00 6,3 6,0 2,8 8,1 11,9 14,4 4 2 8 4 - 1019,5 4,0 0 0,0

tt = Température de l'air
td = dewpoint
tt 5cm = Température de l'air 5cm
tt -5cm = Température de l'air -5cm
tt -20cm = Température de l'air -20cm
tt -100cm = Température de l'air -100cm
ff = Vitesse du vent
fx = gusts
dd = Direction du vent
ppp = reduced air pressure
vv = visibility
sd = Ensoleillement
rr = Quantités de précipitations

stations d'obs. à proximité